Home   Weather   Christiansted   Past weeks

Flag for US Virgin Islands Past Weather in Christiansted, US Virgin Islands — Yesterday and Last 2 Weeks

Now
79 °F

Partly cloudy.


Feels Like: N/A
Forecast: 76 / 81 °F
Wind: 15 mph from Southeast

Location: Christiansted / Henry E. Rohlsen Airport - Saint Croix

Current Time: Apr 24, 2017 at 3:39:46 am

Latest Report: Apr 24, 2017 at 3:06 am


Visibility: 10 mi

Pressure: 29.93 "Hg

Humidity: N/A

Dew Point: N/A

Location of ChristianstedLocation

Past Weather in Christiansted — Graph

°F

Christiansted Temperature Yesterday

Maximum temperature yesterday: 85 °F (at 11:53 am)
Minimum temperature yesterday: 75 °F (at 8:33 pm)
Average temperature yesterday: 79 °F

High & Low Weather Summary for the Past Weeks

 TemperatureHumidityPressure
High85 °F (Apr 9, 10:53 am)100% (Apr 23, 8:33 pm)30.06 "Hg (Apr 23, 8:33 pm)
Low70 °F (Apr 20, 1:53 am)55% (Apr 19, 2:53 pm)29.89 "Hg (Apr 12, 3:53 pm)
Average78 °F79%29.97 "Hg
* Reported Apr 9 2:53 am — Apr 24 2:30 am, Christiansted, Weather by CustomWeather, © 2017

Note: Actual official high and low records may vary slightly from our data, if they occured in-between our weather recording intervals... More about our weather records

Advertising

Christiansted Weather History for the Previous 24 Hours

Scroll right to see more
 ConditionsComfort  
Time TempWeatherWind HumidityBarometerVisibility
2:30 am
Mon, Apr 24
79 °FMostly cloudy.13 mphN/A29.93 "Hg10 mi
2:18 am79 °FOvercast.13 mphN/A29.94 "Hg10 mi
1:53 am77 °FLight rain. Partly cloudy.13 mphN/A29.93 "Hg10 mi
12:53 am75 °FLight rain. Mostly cloudy.12 mphN/A29.96 "Hg10 mi
11:53 pm
Sun, Apr 23
75 °FLight rain. Mostly cloudy.13 mphN/A29.99 "Hg6 mi
11:23 pm75 °FLight rain. Mostly cloudy.13 mphN/A30.00 "Hg4 mi
10:53 pm75 °FHeavy rain. Mostly cloudy.9 mphN/A30.00 "Hg4 mi
10:16 pm75 °FHeavy rain. Overcast.16 mphN/A30.00 "Hg3 mi
10:01 pm75 °FHeavy rain. Overcast.14 mphN/A30.00 "Hg3 mi
9:37 pm75 °FLight rain. Partly cloudy.16 mphN/A29.99 "Hg5 mi
8:53 pm75 °FHeavy rain. Overcast.12 mphN/A29.98 "Hg3 mi
8:33 pm75 °FRain. Fog.15 mph100%29.98 "Hg3 mi
8:17 pm77 °FHeavy rain. Fog.16 mph96%29.97 "Hg2 mi
8:00 pm79 °FPassing clouds.14 mph88%29.96 "Hg10 mi
6:53 pm80 °FOvercast.12 mph85%29.93 "Hg10 mi
5:53 pm80 °FScattered clouds.17 mph81%29.91 "Hg10 mi
5:37 pm81 °FCloudy.15 mph82%29.92 "Hg10 mi
4:53 pm81 °FMostly cloudy.13 mph79%29.91 "Hg10 mi
3:53 pm82 °FPartly sunny.17 mph77%29.91 "Hg10 mi
2:53 pm83 °FPartly sunny.14 mph74%29.93 "Hg10 mi
1:53 pm83 °FMostly cloudy.18 mph74%29.94 "Hg10 mi
12:53 pm84 °FScattered clouds.16 mph70%29.97 "Hg10 mi
11:53 am85 °FScattered clouds.20 mph70%29.99 "Hg10 mi
10:53 am84 °FScattered clouds.18 mph70%30.00 "Hg10 mi
9:53 am83 °FScattered clouds.18 mph72%30.00 "Hg10 mi
8:53 am82 °FScattered clouds.18 mph74%30.00 "Hg10 mi
7:53 am79 °FPassing clouds.13 mph79%29.98 "Hg10 mi
6:53 am78 °FPassing clouds.10 mph82%29.96 "Hg10 mi
5:53 am76 °FPassing clouds.10 mph82%29.96 "Hg10 mi
4:53 am76 °FClear.10 mph82%29.94 "Hg10 mi
3:53 am76 °FPassing clouds.10 mph82%29.93 "Hg10 mi
Weather by CustomWeather, © 2017

See weather overviewHow to use our weather pages